[[{"header":{"parameterUnit":"m.s-1","parameterCategory":1,"la1":30.2991,"la2":30.254,"lo1":-89.0895,"lo2":-89.0444,"dy":0.0017,"dx":0.0017,"nx":28,"ny":28,"refTime":"2025-03-27T09:00:00:Z","depth":0,"parameterNumber":2,"parameterNumberName":"U-component_of_WINDS"},"data":[0,0,0,0,0,0,0,0,0,0,0,0,0,0,0,0,0,0,0,0,0,0,0,0,0,0,0,0,0,0,0,0,0,0,0,0,0,0,0,0,0,0,0,0,0,0,0,0,0,0,0,0,0,0,0,0,0,0,-3.7968,-3.7968,0,-3.7981,-3.7981,-3.7981,-3.7905,-3.7903,-3.7901,-3.7899,-3.7912,-3.7914,-3.7917,0,0,0,0,0,0,0,0,0,0,0,0,0,-3.7877,-3.7879,-3.7968,-3.7968,-3.7968,-3.7981,-3.7981,-3.7981,-3.7905,-3.7903,-3.79,-3.7898,-3.7911,-3.7914,-3.7917,0,0,0,0,0,0,0,0,0,0,0,0,0,-3.7906,-3.788,-3.7968,-3.7932,-3.7928,-3.7981,-3.7981,-3.7981,-3.7906,-3.7903,-3.7899,-3.7896,-3.791,-3.7914,-3.7917,-3.8005,0,0,-3.7928,-3.793,0,0,0,0,0,0,0,0,-3.7905,-3.791,-3.7937,-3.7934,-3.7931,-3.7938,-3.7954,-3.7989,-3.7907,-3.7914,-3.7898,-3.7895,-3.7923,-3.7926,-3.7935,-3.8006,-3.8006,-3.7929,-3.7931,-3.7932,-3.7933,0,0,0,0,0,0,0,-3.7903,-3.7909,-3.7973,-3.7937,-3.7934,-3.7915,-3.7916,-3.7961,-3.7937,-3.7914,-3.7908,-3.7911,-3.7921,-3.7932,-3.7935,-3.8006,-3.7928,-3.7932,-3.7934,-3.7935,-3.8151,-3.8154,0,0,0,0,0,0,-3.7905,-3.7907,-3.7972,-3.7973,-3.7909,-3.7919,-3.792,-3.7939,-3.7936,-3.7933,-3.7914,-3.7907,-3.7927,-3.7931,-3.7935,-3.8037,-3.7932,-3.7936,-3.7938,-3.8147,-3.8151,-3.8155,0,0,0,0,0,0,-3.7904,-3.7912,-3.7972,-3.7939,-3.7945,-3.7924,-3.7946,-3.7941,-3.7952,-3.7936,-3.7932,-3.7929,-3.7925,-3.793,-3.7988,-3.8037,-3.7937,-3.794,-3.8143,-3.8148,-3.8153,-3.8243,0,0,0,0,0,0,-3.7902,-3.7912,-3.7944,-3.794,-3.7947,-3.8025,-3.7949,-3.7944,-3.7958,-3.795,-3.795,-3.7946,-3.7923,-3.7984,-3.7992,-3.804,-3.7943,-3.8138,-3.8145,-3.8152,-3.8236,-3.8251,-3.8264,0,0,0,0,0,-3.7899,-3.7969,-3.7946,-3.7955,-3.7987,-3.8028,-3.8031,-3.8003,-3.7962,-3.7995,-3.7986,-3.7946,-3.8031,-3.799,-3.7999,-3.8049,-3.8135,-3.8143,-3.8151,-3.8229,-3.8248,-3.8264,0,0,0,0,0,0,-3.7978,-3.7967,-3.7942,-3.8013,-3.8022,-3.8015,-3.8054,-3.8024,-3.8044,-3.8035,-3.7999,-3.8,-3.8064,-3.8063,-3.8017,-3.8134,-3.8076,-3.8086,-3.8132,-3.815,-3.8164,-3.8162,-3.7946,0,0,0,0,0,-3.8004,-3.8038,-3.8026,-3.809,-3.8096,-3.8075,-3.8091,-3.8069,-3.8077,-3.808,-3.8074,-3.8083,-3.8112,-3.8131,-3.8157,-3.8236,-3.8235,-3.8275,-3.8289,-3.8301,-3.8309,-3.8352,-3.837,-3.8182,-3.8182,-3.8181,0,0,-3.8057,-3.8056,-3.8079,-3.8106,-3.811,-3.8146,-3.8078,-3.8119,-3.8145,-3.8086,-3.814,-3.8137,-3.8145,-3.8215,-3.8245,-3.8215,-3.8362,-3.8311,-3.8321,-3.8323,-3.8362,-3.838,-3.8396,-3.8187,-3.8186,-3.8185,0,0,-3.8172,-3.8175,-3.8228,-3.8235,-3.8242,-3.8228,-3.8242,-3.824,-3.8236,-3.829,-3.8247,-3.8278,-3.8328,-3.8336,-3.8346,-3.8468,-3.8433,-3.8478,-3.855,-3.8592,-3.8607,-3.862,-3.8663,-3.8679,-3.8487,-3.8487,-3.8487,0,-3.8237,-3.8289,-3.826,-3.8303,-3.8317,-3.8267,-3.8321,-3.8329,-3.8344,-3.8355,-3.8322,-3.8385,-3.8386,-3.8457,-3.8487,-3.8498,-3.8512,-3.8476,-3.8607,-3.862,-3.8632,-3.8672,-3.8688,-3.8492,-3.8492,-3.8491,-3.8491,0,-3.8369,-3.8406,-3.8448,-3.8465,-3.8484,-3.8533,-3.8511,-3.8534,-3.8512,-3.8502,-3.8559,-3.856,-3.8585,-3.8601,-3.8578,-3.8669,-3.865,-3.8613,-3.8553,-3.8655,-3.8693,-3.8708,-3.85,-3.8498,-3.8496,-3.8495,0,0,-3.853,-3.8533,-3.8549,-3.8556,-3.8563,-3.8591,-3.8639,-3.8664,-3.8684,-3.8698,-3.8736,-3.8782,-3.8748,-3.876,-3.8739,-3.8776,-3.8873,-3.8734,-3.8734,-3.8759,-3.8972,-3.8999,-3.9017,-3.8851,-3.8854,-3.8856,-3.8971,0,-3.8642,-3.8722,-3.8699,-3.8779,-3.8813,-3.8769,-3.881,-3.8819,-3.8812,-3.884,-3.8833,-3.8865,-3.8819,-3.8826,-3.8861,-3.8853,-3.8915,-3.8845,-3.8886,-3.8887,-3.8883,-3.9036,-3.9064,-3.9172,-3.8986,-3.8988,-3.899,0,-3.8781,-3.8802,-3.8886,-3.8888,-3.8902,-3.8939,-3.8961,-3.8989,-3.8999,-3.8992,-3.9007,-3.8979,-3.9027,-3.897,-3.9035,-3.8988,-3.9004,-3.9004,-3.9007,-3.9008,-3.8943,-3.904,-3.9206,-3.9222,-3.9013,-3.9011,-3.9009,0,-3.8889,-3.8938,-3.8995,-3.9003,-3.9007,-3.9035,-3.9038,-3.9045,-3.9063,-3.9083,-3.9094,-3.9119,-3.9133,-3.9154,-3.9134,-3.9094,-3.9202,-3.9143,-3.9197,-3.9198,-3.9219,-3.9217,-3.9389,-3.9234,-3.9233,-3.9233,-3.9233,0,-3.9015,-3.9068,-3.9043,-3.9078,-3.9137,-3.9111,-3.917,-3.9168,-3.9175,-3.9209,-3.9173,-3.9206,-3.9179,-3.921,-3.9196,-3.9252,-3.9258,-3.9254,-3.9249,-3.9255,-3.9256,-3.9263,-3.9254,-3.9237,-3.9236,-3.9236,-3.9235,0,-3.9143,-3.9129,-3.9188,-3.9189,-3.9191,-3.9234,-3.9234,-3.9267,-3.9259,-3.9303,-3.9312,-3.9299,-3.9334,-3.9317,-3.9353,-3.9343,-3.9416,-3.9402,-3.9412,-3.9407,-3.9462,-3.9456,-3.9642,-3.9665,-3.9497,-3.9498,-3.95,0,-3.9223,-3.9263,-3.9269,-3.9289,-3.9295,-3.9329,-3.9347,-3.9324,-3.9344,-3.936,-3.9391,-3.9423,-3.9447,-3.9505,-3.9499,-3.9527,-3.9512,-3.9576,-3.9516,-3.9522,-3.9512,-3.9509,-3.9512,-3.9587,-3.9589,-3.959,-3.9592,0,-3.9366,-3.9357,-3.9385,-3.9411,-3.9434,-3.9453,-3.9469,-3.9488,-3.9466,-3.9491,-3.9526,-3.9545,-3.9583,-3.9615,-3.964,-3.9644,-3.9615,-3.9611,-3.9625,-3.9631,-3.9635,-3.9632,-3.9442,-3.9606,-3.9605,-3.9604,-3.9603,-3.9602,-3.9471,-3.9505,-3.9514,-3.9547,-3.9557,-3.9574,-3.9604,-3.9601,-3.963,-3.9659,-3.9645,-3.9686,-3.9698,-3.9729,-3.9737,-3.9769,-3.9744,-3.9764,-3.9769,-3.9774,-3.978,-3.9632,-3.9774,-3.9774,-3.9773,-3.9773,-3.9773,0,-3.961,-3.9615,-3.9645,-3.967,-3.9696,-3.9667,-3.9685,-3.9708,-3.9745,-3.9758,-3.9783,-3.9825,-3.9857,-3.9855,-3.9885,-3.9911,-3.9898,-3.9919,-3.9916,-3.9917,-3.9802,-3.9786,-3.9929,-3.9929,-3.9929,-3.9929,-3.9929,-3.9929,-3.9685,-3.9741,-3.9735,-3.9796,-3.98,-3.9841,-3.9853,-3.9869,-3.9879,-3.9927,-3.9954,-3.9953,-3.9961,-3.9991,-4.002,-4.0018,-4.003,-4.0056,-4.005,-3.9941,-3.9925,-3.991,-3.9896,-4.0059,-4.006,-4.0162,-4.0163,-4.0164]},{"header":{"parameterUnit":"m.s-1","parameterCategory":1,"la1":30.2991,"la2":30.254,"lo1":-89.0895,"lo2":-89.0444,"dy":0.0017,"dx":0.0017,"nx":28,"ny":28,"refTime":"2025-03-27T09:00:00:Z","depth":0,"parameterNumber":3,"parameterNumberName":"V-component_of_WINDS"},"data":[0,0,0,0,0,0,0,0,0,0,0,0,0,0,0,0,0,0,0,0,0,0,0,0,0,0,0,0,0,0,0,0,0,0,0,0,0,0,0,0,0,0,0,0,0,0,0,0,0,0,0,0,0,0,0,0,0,0,0.8148,0.8148,0,0.8178,0.8179,0.8179,0.8192,0.8192,0.8192,0.8192,0.8223,0.8224,0.8225,0,0,0,0,0,0,0,0,0,0,0,0,0,0.8101,0.8102,0.8148,0.8148,0.8148,0.8178,0.8179,0.8179,0.8192,0.8192,0.8192,0.8192,0.8223,0.8224,0.8225,0,0,0,0,0,0,0,0,0,0,0,0,0,0.8125,0.8102,0.8147,0.8158,0.816,0.8178,0.8179,0.8179,0.8192,0.8192,0.8192,0.8192,0.8222,0.8224,0.8225,0.8235,0,0,0.8229,0.823,0,0,0,0,0,0,0,0,0.8124,0.8127,0.8156,0.8158,0.8159,0.8181,0.8174,0.8198,0.8192,0.818,0.8192,0.8192,0.8209,0.8212,0.8218,0.8236,0.8237,0.8229,0.823,0.823,0.8231,0,0,0,0,0,0,0,0.8122,0.8126,0.816,0.8157,0.8159,0.8162,0.8166,0.8178,0.8195,0.8181,0.8182,0.8186,0.821,0.8216,0.8218,0.8238,0.8229,0.823,0.8231,0.8232,0.8269,0.8269,0,0,0,0,0,0,0.8119,0.8124,0.8159,0.8161,0.8141,0.8163,0.8167,0.8174,0.8195,0.8198,0.8186,0.8186,0.8214,0.8217,0.8219,0.8234,0.823,0.8232,0.8232,0.8268,0.8269,0.8269,0,0,0,0,0,0,0.8118,0.8122,0.8158,0.8143,0.8148,0.8164,0.8172,0.8175,0.8181,0.8198,0.8201,0.8189,0.8214,0.8218,0.8231,0.8235,0.8232,0.8233,0.8268,0.8268,0.8269,0.8261,0,0,0,0,0,0,0.8116,0.8121,0.8125,0.8143,0.8148,0.8168,0.8172,0.8176,0.8184,0.8185,0.8202,0.8205,0.8214,0.8229,0.8233,0.8237,0.8234,0.8268,0.8268,0.8269,0.8261,0.8261,0.8262,0,0,0,0,0,0.8115,0.812,0.8125,0.8129,0.8153,0.8169,0.8172,0.8183,0.8184,0.8188,0.8199,0.8204,0.8234,0.8231,0.8235,0.8239,0.8268,0.8268,0.8269,0.8261,0.8261,0.8262,0,0,0,0,0,0,0.8101,0.8123,0.8128,0.814,0.8152,0.8171,0.8176,0.8182,0.8194,0.8195,0.8208,0.8212,0.8225,0.8233,0.8229,0.8251,0.8252,0.8253,0.8245,0.8245,0.8245,0.8243,0.8236,0,0,0,0,0,0.81,0.8111,0.8129,0.8138,0.8144,0.8159,0.8166,0.8174,0.8187,0.8193,0.8205,0.8217,0.823,0.8238,0.825,0.8263,0.8268,0.8268,0.8268,0.8268,0.8269,0.8279,0.828,0.827,0.827,0.827,0,0,0.8097,0.811,0.8116,0.8136,0.8146,0.8158,0.8163,0.8175,0.8184,0.8194,0.8208,0.8218,0.8233,0.8247,0.8254,0.8255,0.8273,0.8269,0.8269,0.827,0.8279,0.828,0.8281,0.8271,0.8271,0.8271,0,0,0.8097,0.8108,0.8117,0.8129,0.8145,0.8155,0.8158,0.8176,0.8183,0.8198,0.8207,0.8218,0.8238,0.825,0.8258,0.8266,0.8272,0.827,0.827,0.8279,0.828,0.828,0.8285,0.8286,0.8271,0.8271,0.8271,0,0.8091,0.8109,0.8121,0.8133,0.8142,0.8154,0.8164,0.8174,0.8194,0.82,0.8201,0.8229,0.824,0.8258,0.826,0.8266,0.827,0.8268,0.8279,0.8279,0.828,0.8285,0.8286,0.827,0.827,0.827,0.827,0,0.8101,0.8114,0.8119,0.8139,0.8149,0.816,0.8175,0.8184,0.8192,0.8202,0.8218,0.8232,0.8249,0.8253,0.826,0.8273,0.8273,0.8276,0.8277,0.8281,0.8285,0.8287,0.827,0.827,0.827,0.827,0,0,0.8093,0.8121,0.8123,0.8134,0.8154,0.8164,0.8176,0.8193,0.8201,0.8215,0.8226,0.8245,0.8249,0.8258,0.8267,0.8275,0.8283,0.8277,0.8278,0.8279,0.83,0.8298,0.8299,0.8287,0.8287,0.8287,0.8299,0,0.8097,0.8119,0.8132,0.815,0.8162,0.8175,0.8186,0.82,0.8211,0.8224,0.8235,0.8249,0.8252,0.8258,0.8267,0.828,0.8287,0.8279,0.8298,0.8299,0.8295,0.8301,0.8299,0.8309,0.83,0.8301,0.8301,0,0.8104,0.8119,0.8138,0.8159,0.8165,0.8175,0.8193,0.8204,0.8221,0.8229,0.8241,0.825,0.8265,0.8265,0.8286,0.8281,0.829,0.8297,0.8298,0.8301,0.83,0.8305,0.8312,0.8314,0.8303,0.8303,0.8303,0,0.8097,0.8122,0.8137,0.8145,0.817,0.8177,0.8188,0.8205,0.8215,0.8231,0.8238,0.8255,0.8264,0.8278,0.8292,0.829,0.8312,0.8313,0.832,0.8319,0.8324,0.8323,0.8333,0.8328,0.8328,0.8328,0.8328,0,0.81,0.8112,0.8135,0.8144,0.8158,0.8174,0.8187,0.8199,0.8215,0.8227,0.8239,0.825,0.8268,0.8282,0.8293,0.831,0.8314,0.8321,0.8324,0.8321,0.832,0.8327,0.8327,0.8329,0.8328,0.8328,0.8328,0,0.8095,0.8111,0.8128,0.8151,0.8158,0.8167,0.8187,0.8197,0.821,0.8226,0.823,0.825,0.8267,0.8283,0.8305,0.8313,0.8331,0.8334,0.8325,0.8327,0.8333,0.8333,0.8348,0.8352,0.8344,0.8344,0.8344,0,0.8096,0.8105,0.813,0.814,0.8151,0.8166,0.8177,0.8193,0.8204,0.8226,0.8234,0.8253,0.8269,0.8297,0.8313,0.8331,0.8335,0.834,0.8338,0.8335,0.8337,0.8336,0.8338,0.8339,0.8339,0.8339,0.8339,0,0.8097,0.8105,0.812,0.814,0.8153,0.8168,0.8184,0.8192,0.8211,0.8223,0.8242,0.8255,0.8279,0.8298,0.8319,0.833,0.8339,0.834,0.8343,0.8339,0.8335,0.8339,0.8326,0.834,0.834,0.834,0.834,0.834,0.8095,0.8105,0.8125,0.8143,0.8157,0.8172,0.8184,0.8198,0.8214,0.8236,0.8245,0.8265,0.8284,0.8313,0.8325,0.8341,0.8342,0.8346,0.8347,0.8347,0.8348,0.8332,0.8344,0.8344,0.8344,0.8344,0.8345,0,0.8098,0.8112,0.8128,0.8151,0.8165,0.8173,0.8192,0.8203,0.8221,0.8238,0.8254,0.8277,0.8296,0.8315,0.8335,0.8345,0.8349,0.835,0.8349,0.8353,0.8345,0.8341,0.8346,0.8346,0.8346,0.8346,0.8346,0.8346,0.8101,0.8119,0.813,0.8155,0.8169,0.8189,0.82,0.8214,0.8229,0.8254,0.827,0.8283,0.8301,0.8324,0.8342,0.8348,0.8355,0.8355,0.8361,0.8353,0.8353,0.8352,0.8349,0.8356,0.8356,0.8368,0.8368,0.8368]}]]